Back to catalog

FENGYUN 1C DEB

AliveSSO
NORAD 30231·DEBRIS·🇨🇳 China

Launched May 10, 1999 from Taiyuan Satellite Launch Center

Loading…

Next Passes (next 24 hours)

TLE

FreshSource: Space-Track

Epoch: Sep 13, 2026, 15:40 UTC

1 30231U 99025WQ  26256.65302791  .00000654  00000-0  35210-3 0  9997
2 30231  98.7725 300.9670 0126766 329.0540 154.5939 14.12224701  8980

Track FENGYUN 1C DEB in real time with AllMySat

Download on the App Store